[[{"header":{"parameterUnit":"m.s-1","parameterCategory":1,"la1":30.2991,"la2":30.254,"lo1":-89.0895,"lo2":-89.0444,"dy":0.0017,"dx":0.0017,"nx":28,"ny":28,"refTime":"2024-08-15T09:00:00:Z","depth":0,"parameterNumber":2,"parameterNumberName":"U-component_of_WINDS"},"data":[0,0,0,0,0,0,0,0,0,0,0,0,0,0,0,0,0,0,0,0,0,0,0,0,0,0,0,0,0,0,0,0,0,0,0,0,0,0,0,0,0,0,0,0,0,0,0,0,0,0,0,0,0,0,0,0,0,0,-1.5922,-1.5923,0,-1.602,-1.6021,-1.6022,-1.6043,-1.6043,-1.6042,-1.6041,-1.6142,-1.6145,-1.6148,0,0,0,0,0,0,0,0,0,0,0,0,0,-1.5752,-1.5755,-1.5922,-1.5923,-1.5924,-1.602,-1.6021,-1.6023,-1.6043,-1.6043,-1.6042,-1.6041,-1.6141,-1.6144,-1.6148,0,0,0,0,0,0,0,0,0,0,0,0,0,-1.5836,-1.5756,-1.5921,-1.5946,-1.5949,-1.602,-1.6021,-1.6023,-1.6044,-1.6043,-1.6041,-1.604,-1.6139,-1.6144,-1.6149,-1.6202,0,0,-1.6164,-1.6167,0,0,0,0,0,0,0,0,-1.5831,-1.5842,-1.5941,-1.5944,-1.5948,-1.6018,-1.5999,-1.6083,-1.6044,-1.6008,-1.6041,-1.604,-1.6101,-1.611,-1.613,-1.6207,-1.6211,-1.6165,-1.6168,-1.617,-1.6171,0,0,0,0,0,0,0,-1.5825,-1.5838,-1.5961,-1.5943,-1.5947,-1.5953,-1.5963,-1.6015,-1.6059,-1.6011,-1.6013,-1.6024,-1.6103,-1.6125,-1.6133,-1.6212,-1.6165,-1.6169,-1.6172,-1.6174,-1.634,-1.6341,0,0,0,0,0,0,-1.5815,-1.5833,-1.5957,-1.5964,-1.5886,-1.5956,-1.5968,-1.5997,-1.6059,-1.6067,-1.6025,-1.6025,-1.6117,-1.6127,-1.6137,-1.6204,-1.617,-1.6175,-1.6178,-1.6338,-1.634,-1.6341,0,0,0,0,0,0,-1.5811,-1.5826,-1.5953,-1.5899,-1.5916,-1.5961,-1.5992,-1.5999,-1.6022,-1.607,-1.6078,-1.6039,-1.6117,-1.6129,-1.6186,-1.6207,-1.6177,-1.6182,-1.6337,-1.6339,-1.6341,-1.6337,0,0,0,0,0,0,-1.5806,-1.5825,-1.5845,-1.5899,-1.5918,-1.6001,-1.5994,-1.6002,-1.603,-1.6031,-1.6085,-1.6093,-1.6117,-1.6178,-1.6191,-1.6214,-1.6186,-1.6335,-1.6337,-1.634,-1.6336,-1.6339,-1.6342,0,0,0,0,0,-1.58,-1.5839,-1.5845,-1.586,-1.5944,-1.6002,-1.6013,-1.604,-1.6032,-1.6053,-1.6084,-1.6092,-1.6203,-1.6184,-1.6198,-1.6223,-1.6334,-1.6337,-1.634,-1.6334,-1.6338,-1.6342,0,0,0,0,0,0,-1.5785,-1.5847,-1.5854,-1.5912,-1.5952,-1.6005,-1.6032,-1.6043,-1.6085,-1.6084,-1.6115,-1.6128,-1.6183,-1.6209,-1.6186,-1.6279,-1.6268,-1.6274,-1.6259,-1.6263,-1.6266,-1.6258,-1.619,0,0,0,0,0,-1.5789,-1.583,-1.5882,-1.5928,-1.5947,-1.5987,-1.6013,-1.603,-1.6072,-1.6089,-1.6124,-1.6165,-1.621,-1.6238,-1.6282,-1.634,-1.6353,-1.6364,-1.6367,-1.637,-1.6374,-1.6409,-1.6415,-1.6351,-1.6351,-1.6351,0,0,-1.5796,-1.5835,-1.5859,-1.5926,-1.5958,-1.6001,-1.6,-1.6045,-1.6077,-1.6096,-1.6152,-1.6179,-1.6227,-1.6285,-1.6313,-1.6309,-1.6395,-1.6374,-1.6375,-1.6379,-1.6412,-1.6418,-1.6424,-1.6354,-1.6353,-1.6353,0,0,-1.5831,-1.5864,-1.5907,-1.594,-1.599,-1.6017,-1.6027,-1.608,-1.6099,-1.6156,-1.6171,-1.621,-1.6286,-1.632,-1.6347,-1.6398,-1.6407,-1.6412,-1.6427,-1.646,-1.6465,-1.647,-1.6488,-1.6494,-1.6416,-1.6416,-1.6416,0,-1.5833,-1.5898,-1.5927,-1.5972,-1.6001,-1.6021,-1.6065,-1.6096,-1.6158,-1.6178,-1.6173,-1.627,-1.6304,-1.6371,-1.6383,-1.6405,-1.6418,-1.6405,-1.6462,-1.6467,-1.6472,-1.649,-1.6497,-1.6417,-1.6417,-1.6417,-1.6416,0,-1.5899,-1.5944,-1.5972,-1.6032,-1.6065,-1.6109,-1.6146,-1.6176,-1.6191,-1.6218,-1.6277,-1.6318,-1.6371,-1.6389,-1.6404,-1.6459,-1.6455,-1.6456,-1.6446,-1.6477,-1.6495,-1.6502,-1.6417,-1.6417,-1.6417,-1.6417,0,0,-1.5924,-1.6002,-1.6012,-1.604,-1.6098,-1.6134,-1.618,-1.6232,-1.6258,-1.63,-1.634,-1.6405,-1.6407,-1.6438,-1.6457,-1.6486,-1.6525,-1.6484,-1.6486,-1.649,-1.6589,-1.6588,-1.6595,-1.6532,-1.6534,-1.6535,-1.6585,0,-1.5966,-1.6048,-1.6077,-1.6145,-1.6188,-1.6209,-1.6249,-1.629,-1.6317,-1.6357,-1.6388,-1.6433,-1.6432,-1.6451,-1.6481,-1.6514,-1.6545,-1.6511,-1.6569,-1.6571,-1.6556,-1.6604,-1.6602,-1.6648,-1.6592,-1.6593,-1.6594,0,-1.6025,-1.607,-1.6142,-1.6197,-1.6216,-1.6251,-1.6303,-1.6341,-1.6388,-1.6406,-1.6442,-1.646,-1.651,-1.6498,-1.6568,-1.6544,-1.657,-1.659,-1.6593,-1.6598,-1.6584,-1.6611,-1.6663,-1.6669,-1.6605,-1.6604,-1.6604,0,-1.6037,-1.6115,-1.6169,-1.6193,-1.6258,-1.6282,-1.6311,-1.6357,-1.6387,-1.6432,-1.6453,-1.6503,-1.653,-1.657,-1.6601,-1.659,-1.6668,-1.6659,-1.6685,-1.6684,-1.6699,-1.6697,-1.6755,-1.6717,-1.6717,-1.6717,-1.6717,0,-1.608,-1.6124,-1.6175,-1.6208,-1.6258,-1.6292,-1.634,-1.637,-1.6411,-1.6451,-1.6473,-1.651,-1.655,-1.6592,-1.6617,-1.6671,-1.6684,-1.67,-1.6706,-1.6698,-1.6695,-1.6714,-1.6712,-1.6719,-1.6718,-1.6718,-1.6717,0,-1.6101,-1.6137,-1.6197,-1.6255,-1.627,-1.6305,-1.6354,-1.6388,-1.6417,-1.6467,-1.6481,-1.6526,-1.6578,-1.6614,-1.6679,-1.6697,-1.6755,-1.6761,-1.6739,-1.6742,-1.6765,-1.6763,-1.6837,-1.6848,-1.6803,-1.6803,-1.6803,0,-1.6126,-1.616,-1.6222,-1.625,-1.6279,-1.6324,-1.6355,-1.6391,-1.6423,-1.648,-1.6507,-1.656,-1.6604,-1.6685,-1.6724,-1.6775,-1.6782,-1.6805,-1.679,-1.6781,-1.6783,-1.678,-1.6784,-1.6807,-1.6807,-1.6807,-1.6808,0,-1.6166,-1.6183,-1.6228,-1.6279,-1.6316,-1.6359,-1.6401,-1.6423,-1.6466,-1.6501,-1.6554,-1.6588,-1.6657,-1.6709,-1.6764,-1.6794,-1.6808,-1.6812,-1.6821,-1.6812,-1.6798,-1.6806,-1.6744,-1.681,-1.681,-1.681,-1.6809,-1.6809,-1.619,-1.6222,-1.6271,-1.632,-1.6356,-1.6396,-1.643,-1.6464,-1.6509,-1.6567,-1.6586,-1.6641,-1.6689,-1.6765,-1.6796,-1.684,-1.6839,-1.6851,-1.6854,-1.6857,-1.6856,-1.6792,-1.685,-1.685,-1.685,-1.685,-1.685,0,-1.6231,-1.6264,-1.631,-1.6369,-1.6408,-1.6419,-1.6467,-1.6499,-1.6548,-1.6592,-1.6635,-1.6697,-1.6749,-1.6793,-1.6847,-1.6874,-1.6882,-1.6887,-1.6885,-1.6891,-1.6854,-1.6842,-1.6879,-1.6879,-1.6879,-1.6879,-1.6879,-1.6879,-1.6257,-1.6312,-1.6335,-1.6409,-1.6442,-1.6496,-1.6523,-1.656,-1.6595,-1.6663,-1.6706,-1.6735,-1.678,-1.6837,-1.6886,-1.6898,-1.6916,-1.692,-1.6933,-1.6897,-1.6894,-1.6891,-1.6878,-1.6924,-1.6924,-1.6966,-1.6967,-1.6967]},{"header":{"parameterUnit":"m.s-1","parameterCategory":1,"la1":30.2991,"la2":30.254,"lo1":-89.0895,"lo2":-89.0444,"dy":0.0017,"dx":0.0017,"nx":28,"ny":28,"refTime":"2024-08-15T09:00:00:Z","depth":0,"parameterNumber":3,"parameterNumberName":"V-component_of_WINDS"},"data":[0,0,0,0,0,0,0,0,0,0,0,0,0,0,0,0,0,0,0,0,0,0,0,0,0,0,0,0,0,0,0,0,0,0,0,0,0,0,0,0,0,0,0,0,0,0,0,0,0,0,0,0,0,0,0,0,0,0,2.7339,2.734,0,2.737,2.737,2.7371,2.7292,2.7289,2.7287,2.7284,2.7317,2.732,2.7323,0,0,0,0,0,0,0,0,0,0,0,0,0,2.7211,2.7214,2.7339,2.734,2.734,2.737,2.737,2.7371,2.7292,2.7289,2.7286,2.7283,2.7316,2.732,2.7324,0,0,0,0,0,0,0,0,0,0,0,0,0,2.7257,2.7214,2.7339,2.7304,2.7301,2.737,2.737,2.7371,2.7293,2.7289,2.7285,2.7282,2.7315,2.7319,2.7324,2.7428,0,0,2.7339,2.7341,0,0,0,0,0,0,0,0,2.7254,2.7262,2.7309,2.7307,2.7304,2.7323,2.7337,2.739,2.7294,2.7296,2.7284,2.728,2.7322,2.7326,2.734,2.743,2.7431,2.7339,2.7342,2.7344,2.7346,0,0,0,0,0,0,0,2.7251,2.726,2.7351,2.731,2.7307,2.7287,2.7289,2.7347,2.733,2.7296,2.729,2.7294,2.732,2.7336,2.734,2.7432,2.7339,2.7343,2.7346,2.7348,2.7605,2.7609,0,0,0,0,0,0,2.7252,2.7258,2.735,2.7352,2.7269,2.7292,2.7295,2.7321,2.7329,2.7326,2.7298,2.7291,2.7329,2.7335,2.7341,2.7461,2.7344,2.7349,2.7351,2.7601,2.7606,2.761,0,0,0,0,0,0,2.725,2.7261,2.7349,2.7303,2.7313,2.7298,2.7328,2.7323,2.7339,2.733,2.7327,2.7317,2.7327,2.7334,2.7406,2.7462,2.7351,2.7355,2.7596,2.7602,2.7608,2.7704,0,0,0,0,0,0,2.7247,2.7261,2.7301,2.7305,2.7316,2.7415,2.7331,2.7327,2.7347,2.7338,2.7348,2.7346,2.7324,2.74,2.7411,2.7466,2.7359,2.7591,2.7599,2.7606,2.7696,2.7713,2.7727,0,0,0,0,0,2.7242,2.7328,2.7304,2.7315,2.7366,2.7418,2.7424,2.7398,2.7352,2.7391,2.7385,2.7345,2.7454,2.7408,2.742,2.7477,2.7588,2.7597,2.7605,2.7689,2.771,2.7727,0,0,0,0,0,0,2.7333,2.7328,2.7301,2.7391,2.7405,2.7405,2.7454,2.7421,2.7449,2.744,2.7406,2.7409,2.7486,2.7489,2.7438,2.7577,2.7513,2.7525,2.7572,2.7592,2.7607,2.7604,2.7363,0,0,0,0,0,2.7363,2.7406,2.74,2.7479,2.7488,2.747,2.7492,2.747,2.7484,2.749,2.7489,2.7504,2.7541,2.7567,2.76,2.7696,2.7696,2.7741,2.7757,2.7769,2.778,2.7828,2.7847,2.7639,2.7639,2.7639,0,0,2.7426,2.7429,2.7459,2.7497,2.7506,2.755,2.7476,2.7527,2.7559,2.7497,2.7565,2.7565,2.7579,2.7663,2.7699,2.7667,2.7837,2.7781,2.7791,2.7794,2.7839,2.7859,2.7876,2.7645,2.7644,2.7643,0,0,2.7564,2.7571,2.7637,2.7646,2.7659,2.7646,2.7662,2.7666,2.7663,2.773,2.7683,2.7721,2.7787,2.7798,2.7812,2.795,2.7913,2.7962,2.8043,2.809,2.8106,2.8121,2.8168,2.8186,2.7973,2.7973,2.7973,0,2.7641,2.7706,2.7675,2.7728,2.7745,2.769,2.7755,2.7766,2.7791,2.7804,2.7767,2.7845,2.7852,2.7935,2.7969,2.7983,2.7999,2.7961,2.8107,2.8121,2.8134,2.8178,2.8196,2.7979,2.7978,2.7977,2.7977,0,2.7799,2.7845,2.7896,2.7919,2.7942,2.8001,2.7978,2.8005,2.798,2.7971,2.8038,2.8043,2.8075,2.8094,2.8071,2.8174,2.8153,2.8112,2.8047,2.816,2.8201,2.8218,2.7987,2.7985,2.7983,2.7982,0,0,2.7997,2.7999,2.8018,2.8026,2.8035,2.807,2.8125,2.8156,2.8179,2.8197,2.8242,2.8297,2.8258,2.8274,2.8252,2.8293,2.8399,2.8247,2.8246,2.8274,2.851,2.854,2.8561,2.8375,2.8378,2.8381,2.8509,0,2.8131,2.8225,2.8197,2.8292,2.8332,2.8279,2.8327,2.8337,2.8329,2.8362,2.8353,2.8391,2.8338,2.8347,2.8386,2.8378,2.8446,2.8369,2.8415,2.8417,2.8413,2.8583,2.8615,2.8736,2.8525,2.8528,2.853,0,2.8301,2.8323,2.8421,2.842,2.8436,2.848,2.8504,2.8536,2.8546,2.8537,2.8554,2.8522,2.8575,2.851,2.8582,2.853,2.8547,2.8546,2.855,2.8552,2.848,2.8589,2.8774,2.8791,2.8555,2.8553,2.8551,0,2.8432,2.8487,2.8552,2.8561,2.8562,2.8594,2.8596,2.8602,2.8621,2.8642,2.8653,2.8681,2.8696,2.8718,2.8694,2.8649,2.8769,2.8702,2.8762,2.8762,2.8789,2.8788,2.8978,2.8803,2.8802,2.8802,2.8802,0,2.8585,2.8647,2.8611,2.8651,2.8718,2.8684,2.8751,2.8747,2.8752,2.879,2.8746,2.8782,2.8748,2.8781,2.8763,2.8824,2.8832,2.8825,2.8819,2.8829,2.8829,2.8839,2.8829,2.8807,2.8806,2.8805,2.8804,0,2.8744,2.8722,2.8789,2.8783,2.8783,2.8833,2.8828,2.8864,2.8851,2.8899,2.8909,2.889,2.8926,2.8903,2.8941,2.8928,2.9007,2.8991,2.9004,2.8999,2.9059,2.9053,2.9262,2.9287,2.9096,2.9098,2.91,0,2.8842,2.8888,2.8886,2.8907,2.8911,2.8947,2.8965,2.8933,2.8954,2.8966,2.9001,2.9033,2.9057,2.9117,2.9106,2.9134,2.9117,2.9188,2.9121,2.9127,2.9116,2.9113,2.9116,2.9201,2.9203,2.9205,2.9207,0,2.9018,2.9004,2.9032,2.9055,2.9078,2.9095,2.9109,2.9129,2.9096,2.9122,2.9157,2.9175,2.9212,2.9244,2.9266,2.9268,2.9232,2.9228,2.9243,2.9252,2.9257,2.9253,2.9039,2.9223,2.9222,2.922,2.9219,2.9219,2.9148,2.9185,2.9188,2.922,2.9226,2.9239,2.9272,2.9262,2.9291,2.9317,2.9296,2.9338,2.9344,2.937,2.9376,2.9408,2.9379,2.9401,2.9407,2.9412,2.942,2.9253,2.9412,2.9412,2.9411,2.9411,2.941,0,2.932,2.9318,2.9348,2.9367,2.9391,2.9353,2.9366,2.9389,2.9425,2.9433,2.9457,2.9496,2.9526,2.9517,2.9543,2.957,2.9554,2.9578,2.9575,2.9576,2.9445,2.9429,2.959,2.959,2.959,2.959,2.959,2.959,2.9412,2.9471,2.9458,2.9519,2.9517,2.9557,2.9566,2.9578,2.9583,2.9629,2.9653,2.9646,2.9646,2.9672,2.9697,2.9693,2.9704,2.9734,2.9725,2.9603,2.9585,2.9568,2.9552,2.9737,2.9738,2.9852,2.9853,2.9854]}]]